TimeCDT,TemperatureF,Dew PointF,Humidity,Sea Level PressureIn,VisibilityMPH,Wind Direction,Wind SpeedMPH,Gust SpeedMPH,PrecipitationIn,Events,Conditions,WindDirDegrees,DateUTC
12:56 AM,77.9,68.9,74,29.85,10.0,SE,12.7,-,0.00,Rain,Light Rain,130,2013-05-02 05:56:00
1:23 AM,78.8,69.8,74,29.88,10.0,ESE,13.8,-,0.00,,Overcast,110,2013-05-02 06:23:00
1:56 AM,77.0,68.9,76,29.90,9.0,NE,15.0,19.6,0.00,,Overcast,40,2013-05-02 06:56:00
2:03 AM,77.0,69.8,78,29.93,9.0,ENE,13.8,-,N/A,,Overcast,60,2013-05-02 07:03:00
2:56 AM,74.8,68.0,79,29.90,9.0,East,13.8,23.0,N/A,,Overcast,90,2013-05-02 07:56:00
3:36 AM,73.4,68.0,83,29.96,9.0,ENE,13.8,-,N/A,,Overcast,70,2013-05-02 08:36:00
3:56 AM,73.9,68.0,82,29.93,9.0,ENE,18.4,-,N/A,,Overcast,70,2013-05-02 08:56:00
4:56 AM,73.9,68.9,84,29.92,9.0,ESE,11.5,-,0.00,Rain,Light Rain,120,2013-05-02 09:56:00
5:09 AM,73.4,69.8,88,29.96,9.0,East,11.5,-,0.00,Rain,Light Rain,100,2013-05-02 10:09:00
5:56 AM,73.9,66.9,79,29.92,10.0,SSE,10.4,-,0.00,Rain,Light Rain,160,2013-05-02 10:56:00
6:56 AM,72.9,66.9,82,29.96,9.0,NNE,4.6,-,0.00,,Clear,20,2013-05-02 11:56:00
7:56 AM,73.9,66.9,79,29.97,10.0,Calm,Calm,-,N/A,,Clear,0,2013-05-02 12:56:00
8:56 AM,77.0,66.9,71,29.99,10.0,WSW,8.1,-,N/A,,Clear,240,2013-05-02 13:56:00
9:44 AM,78.8,66.2,65,30.10,10.0,NNW,13.8,-,N/A,,Mostly Cloudy,330,2013-05-02 14:44:00
9:56 AM,77.9,65.8,66,30.07,10.0,NNW,17.3,-,N/A,,Mostly Cloudy,340,2013-05-02 14:56:00
10:29 AM,78.8,64.4,61,30.12,10.0,North,18.4,-,N/A,,Mostly Cloudy,350,2013-05-02 15:29:00
10:56 AM,73.9,55.9,53,30.11,10.0,NNW,26.5,32.2,N/A,,Overcast,340,2013-05-02 15:56:00
11:56 AM,70.9,52.0,51,30.16,10.0,North,24.2,31.1,N/A,,Mostly Cloudy,350,2013-05-02 16:56:00
12:56 PM,70.9,50.9,49,30.17,10.0,North,24.2,32.2,N/A,,Overcast,360,2013-05-02 17:56:00
1:56 PM,70.0,48.9,47,30.16,10.0,NNW,23.0,32.2,N/A,,Mostly Cloudy,340,2013-05-02 18:56:00
2:56 PM,70.0,46.9,44,30.15,10.0,NNW,23.0,32.2,N/A,,Mostly Cloudy,340,2013-05-02 19:56:00
3:56 PM,72.0,46.9,41,30.14,10.0,North,26.5,32.2,N/A,,Mostly Cloudy,10,2013-05-02 20:56:00
4:56 PM,72.0,46.9,41,30.15,10.0,North,24.2,27.6,N/A,,Overcast,360,2013-05-02 21:56:00
5:56 PM,70.0,45.9,42,30.18,10.0,North,21.9,31.1,N/A,,Overcast,360,2013-05-02 22:56:00
6:56 PM,68.0,43.9,42,30.19,10.0,North,23.0,26.5,N/A,,Overcast,350,2013-05-02 23:56:00
7:56 PM,65.8,41.9,42,30.22,10.0,North,21.9,27.6,N/A,,Overcast,350,2013-05-03 00:56:00
8:56 PM,64.9,41.0,42,30.27,10.0,North,23.0,26.5,N/A,,Overcast,350,2013-05-03 01:56:00
9:56 PM,63.0,39.9,43,30.30,10.0,North,21.9,-,N/A,,Overcast,350,2013-05-03 02:56:00
10:56 PM,61.9,39.9,44,30.32,10.0,North,23.0,26.5,N/A,,Overcast,350,2013-05-03 03:56:00
11:56 PM,59.0,37.9,46,30.37,10.0,North,19.6,31.1,N/A,,Overcast,350,2013-05-03 04:56:00